Showing default

GSAT 7A, 43864

Orbit data source: Space-Track

GSAT 7A, 43864 is a payload satellite owned by ISRO (IN) in GEO that was launched on Wed, 19 Dec 2018 UTC via a GSLV MK II launch vehicle from the Sirharikota (SRI). Payloads include a variety of satellites, spacecraft, and rockets equipped with specific instruments for various scientific and technological missions. These include communications satellites like Starlink; space stations such as the ISS; scientific satellites like the Hubble; Earth observation satellites from companies like Planet Labs, Umbra, and HawkEye 360; GPS; miniature CubeSats for education and research; and military/defense satellites.

Not visible in the next 10 days
GSAT 7A details
Identifier
43864, 2018-105A
Orbit
GEO
Last TLE update16 hours ago
Origin
Flag of INISRO (IN / IND)
ManufacturerISRO
MissionOperational Defense Communications
Bus & MotorI2K, ISRO LAM
Mass2,250 kg wet, ~1,000 kg dry
Launch date (UTC)
2018-12-19 (6 years ago)
Launch vehicle
GSLV MK II
Launch site
Sirharikota (SRI)
Object type
Payload
Rocket body
Debris
Shape & HBRBox + 2 Pan, 9.5 m
Radar Cross Section8.526 m², Small (<0.1 m²)

Expand to show TLE details & history

TLE from 16 hours ago
0 GSAT 7A
1 43864U 18105A   24361.11321021  .00000054  00000-0  00000-0 0  9996
2 43864   0.0857 267.5444 0002257 344.6024 306.5374  1.00274415 22059
Epoch: 2024-12-26T02:43Z
Definitive object data (Epoch: 2024-12-26T02:43:01.362Z)
Latitude-0.08614°
Longitude62.80278°
Altitude35,779.694 km
Speed3.075 km/s
True Right ascension13h 14m 37s
True Declination0° 05' 10"
Sunlit
Object was in daylight at TLE epoch
Visualization TLE readout
Latitude0.03837°
Longitude-59.88141°
Altitude35,794.835 km
Speed3.074 km/s
Apparent Right ascension05h 08m 52s
Apparent Declination-4° 55' 07"
Sunlit
Object is in daylight
Visualization observer readout
Local Sidereal Time17:52:06
Azimuth18.379° NNE
Elevation-53.671°
Doppler factor1
Orbital elements
Apogee altitude35,796.445 km
Perigee altitude35,777.411 km
Semi-major axis42,165.065 km
Eccentricity0.0002257
Inclination0.0857°
RAAN267.5444°
Arg. of periapsis344.6024°
True anomaly306.51662°
Mean anomaly306.5374°
Eccentric anomaly306.52701°
Mean motion0.25068 °/min
BSTARUnknown
Orbital period1436.11 mins
Loading historical data...
43864 neighbors
Authenticating...
Loading maneuver chart data...
Loading historical data...
Loading historical data...
Loading historical data...
Loading historical data...
Loading historical data...
Loading historical data...
Loading historical data...
Other satellites on launch #105 in the year 2018 (2018-12-19 UTC)

GSAT 7A Visibility forecast

Observer location: undefined°, undefined

GSAT 7A is not visible in the next 10 days
Span
Click to sort rows by Start time (UTC) header in descending order
Start Az.
Max El. time (UTC)
Max El. Az.
Max El.
End time (UTC)
End Az.
|